RYR5923 EPPO-LDDU

Flight info

Callsign RYR5923
Flight time 1h 35m
Altitude 33000
Route XIDNA DCT DESEN DCT VALPI DCT XOMBA DCT OSDUK/N0454F340 DCT GUBOK/N0454F330 DCT BARIT P10 NERRA
Aircraft B738/M-SDE2E3FGHIRWXY/LB1

Departure

Time 2026-05-06 15:24
Airport Poznań-Ławica Airport (EPPO)

Arrival

Time 2026-05-06 17:00
Airport Dubrovnik Ruđer Bošković Airport (LDDU)
Time Latitude Longitude Altitude Speed Heading
2026-05-06 15:11 52.41556 16.83198 287 ft 0 kts 193°
2026-05-06 15:19 52.41566 16.83202 287 ft 4 kts 187°
2026-05-06 15:20 52.41592 16.83199 290 ft 4 kts 158°
2026-05-06 15:20 52.41613 16.83181 293 ft 1 kts 147°
2026-05-06 15:20 52.41617 16.83177 292 ft 0 kts 147°
2026-05-06 15:22 52.41616 16.83179 293 ft 1 kts 131°
2026-05-06 15:22 52.41607 16.83254 287 ft 17 kts 102°
2026-05-06 15:22 52.41572 16.83528 287 ft 27 kts 99°
2026-05-06 15:23 52.41562 16.83822 287 ft 25 kts 86°
2026-05-06 15:23 52.41672 16.84004 287 ft 23 kts 19°
2026-05-06 15:23 52.41805 16.84082 288 ft 12 kts
2026-05-06 15:23 52.41836 16.84009 288 ft 8 kts 288°
2026-05-06 15:24 52.41874 16.83808 294 ft 50 kts 287°
2026-05-06 15:24 52.42067 16.82822 286 ft 129 kts 287°
2026-05-06 15:24 52.42386 16.81143 588 ft 169 kts 291°
2026-05-06 15:24 52.42778 16.79224 1433 ft 180 kts 287°
2026-05-06 15:25 52.43104 16.77228 2347 ft 183 kts 275°
2026-05-06 15:25 52.42802 16.75106 2724 ft 207 kts 240°
2026-05-06 15:25 52.41744 16.73433 3297 ft 221 kts 210°
2026-05-06 15:25 52.40211 16.72975 4057 ft 232 kts 180°
2026-05-06 15:26 52.38618 16.73453 4772 ft 242 kts 173°
2026-05-06 15:26 52.37476 16.73892 5074 ft 256 kts 172°
2026-05-06 15:26 52.35131 16.74838 6156 ft 264 kts 171°
2026-05-06 15:26 52.33359 16.75559 7138 ft 263 kts 172°
2026-05-06 15:27 52.31566 16.76279 7961 ft 268 kts 172°
2026-05-06 15:27 52.30335 16.76769 8551 ft 270 kts 172°
2026-05-06 15:27 52.28502 16.77493 9476 ft 272 kts 172°
2026-05-06 15:27 52.26640 16.78221 10195 ft 281 kts 172°
2026-05-06 15:28 52.24648 16.78987 10417 ft 307 kts 172°
2026-05-06 15:28 52.22481 16.79816 10607 ft 332 kts 171°
2026-05-06 15:28 52.20163 16.80705 10918 ft 350 kts 171°
2026-05-06 15:28 52.17798 16.81619 11556 ft 356 kts 171°
2026-05-06 15:29 52.15372 16.82559 12284 ft 361 kts 171°
2026-05-06 15:29 52.12409 16.83702 13221 ft 366 kts 171°
2026-05-06 15:29 52.10428 16.84464 13807 ft 369 kts 171°
2026-05-06 15:29 52.07914 16.85429 14576 ft 372 kts 171°
2026-05-06 15:30 52.05389 16.86395 15386 ft 374 kts 171°
2026-05-06 15:30 52.02850 16.87365 16185 ft 376 kts 171°
2026-05-06 15:30 52.00296 16.88339 16945 ft 378 kts 171°
2026-05-06 15:30 51.97726 16.89317 17711 ft 381 kts 171°
2026-05-06 15:31 51.95131 16.90303 18411 ft 385 kts 171°
2026-05-06 15:31 51.92508 16.91298 19047 ft 389 kts 171°
2026-05-06 15:31 51.89896 16.92288 19663 ft 392 kts 171°
2026-05-06 15:32 51.84532 16.94318 20889 ft 398 kts 171°
2026-05-06 15:32 51.81817 16.95345 21464 ft 402 kts 172°
2026-05-06 15:32 51.79084 16.96376 22029 ft 405 kts 172°
2026-05-06 15:32 51.76325 16.97417 22578 ft 409 kts 172°
2026-05-06 15:33 51.73544 16.98464 23125 ft 412 kts 172°
2026-05-06 15:33 51.70740 16.99518 23613 ft 415 kts 172°
2026-05-06 15:33 51.67923 17.00574 24063 ft 417 kts 172°
2026-05-06 15:33 51.65091 17.01632 24555 ft 419 kts 172°
2026-05-06 15:34 51.62243 17.02695 25012 ft 421 kts 172°
2026-05-06 15:34 51.59385 17.03759 25429 ft 423 kts 172°
2026-05-06 15:34 51.56502 17.04832 25854 ft 426 kts 172°
2026-05-06 15:34 51.53605 17.05909 26265 ft 428 kts 172°
2026-05-06 15:35 51.50696 17.06989 26617 ft 430 kts 172°
2026-05-06 15:35 51.47764 17.08077 26961 ft 434 kts 172°
2026-05-06 15:35 51.44851 17.09156 27319 ft 437 kts 172°
2026-05-06 15:35 51.41882 17.10255 27694 ft 439 kts 172°
2026-05-06 15:36 51.38906 17.11356 28072 ft 440 kts 172°
2026-05-06 15:36 51.35917 17.12461 28565 ft 439 kts 172°
2026-05-06 15:36 51.32953 17.13558 29183 ft 436 kts 172°
2026-05-06 15:36 51.30012 17.14645 29823 ft 432 kts 172°
2026-05-06 15:37 51.27088 17.15722 30278 ft 430 kts 173°
2026-05-06 15:37 51.24166 17.16795 30618 ft 431 kts 173°
2026-05-06 15:37 51.21234 17.17867 30939 ft 433 kts 173°
2026-05-06 15:37 51.18300 17.18940 31342 ft 432 kts 173°
2026-05-06 15:38 51.15375 17.20010 31770 ft 431 kts 173°
2026-05-06 15:38 51.12454 17.21078 32178 ft 430 kts 173°
2026-05-06 15:38 51.09540 17.22141 32529 ft 430 kts 173°
2026-05-06 15:38 51.06655 17.23192 32902 ft 430 kts 173°
2026-05-06 15:39 51.03735 17.24254 33300 ft 430 kts 173°
2026-05-06 15:39 51.00822 17.25313 33614 ft 430 kts 173°
2026-05-06 15:39 50.97896 17.26373 33805 ft 433 kts 173°
2026-05-06 15:39 50.94950 17.27439 34086 ft 434 kts 173°
2026-05-06 15:40 50.92017 17.28503 34456 ft 432 kts 173°
2026-05-06 15:40 50.89089 17.29564 34818 ft 430 kts 173°
2026-05-06 15:40 50.86164 17.30621 35115 ft 431 kts 173°
2026-05-06 15:40 50.83243 17.31674 35382 ft 431 kts 173°
2026-05-06 15:41 50.80314 17.32728 35692 ft 431 kts 173°
2026-05-06 15:41 50.77393 17.33779 36014 ft 430 kts 173°
2026-05-06 15:41 50.74477 17.34827 36281 ft 430 kts 173°
2026-05-06 15:41 50.71561 17.35874 36630 ft 428 kts 173°
2026-05-06 15:42 50.68649 17.36917 36767 ft 432 kts 173°
2026-05-06 15:42 50.65713 17.37965 36781 ft 434 kts 173°
2026-05-06 15:42 50.59830 17.40068 36775 ft 431 kts 173°
2026-05-06 15:43 50.54057 17.42130 36787 ft 426 kts 173°
2026-05-06 15:43 50.48276 17.44183 36775 ft 425 kts 173°
2026-05-06 15:44 50.42498 17.46229 36790 ft 425 kts 173°
2026-05-06 15:44 50.36721 17.48271 36800 ft 426 kts 173°
2026-05-06 15:45 50.30917 17.50320 36794 ft 428 kts 173°
2026-05-06 15:45 50.25100 17.52370 36800 ft 429 kts 173°
2026-05-06 15:46 50.19296 17.54435 36793 ft 430 kts 173°
2026-05-06 15:46 50.13449 17.56517 36801 ft 431 kts 173°
2026-05-06 15:47 50.07602 17.58593 36816 ft 432 kts 173°
2026-05-06 15:47 50.01740 17.60666 36802 ft 432 kts 173°
2026-05-06 15:48 49.95863 17.62740 36801 ft 433 kts 173°
2026-05-06 15:48 49.89986 17.64808 36809 ft 433 kts 173°
2026-05-06 15:49 49.84148 17.66858 36816 ft 433 kts 173°
2026-05-06 15:49 49.78265 17.68917 36812 ft 433 kts 173°
2026-05-06 15:50 49.72381 17.70973 36820 ft 434 kts 173°
2026-05-06 15:50 49.66487 17.73025 36810 ft 434 kts 173°
2026-05-06 15:51 49.60592 17.75075 36819 ft 434 kts 173°
2026-05-06 15:51 49.54701 17.77118 36817 ft 434 kts 173°
2026-05-06 15:52 49.48813 17.79154 36797 ft 433 kts 173°
2026-05-06 15:52 49.42937 17.81182 36816 ft 432 kts 173°
2026-05-06 15:53 49.37067 17.83202 36821 ft 432 kts 173°
2026-05-06 15:53 49.31234 17.85204 36813 ft 432 kts 173°
2026-05-06 15:54 49.25371 17.87212 36816 ft 432 kts 173°
2026-05-06 15:54 49.19511 17.89214 36806 ft 432 kts 173°
2026-05-06 15:55 49.13651 17.91211 36810 ft 431 kts 173°
2026-05-06 15:55 49.07791 17.93205 36804 ft 431 kts 173°
2026-05-06 15:56 49.01920 17.95112 36816 ft 429 kts 178°
2026-05-06 15:56 48.96014 17.95756 36816 ft 425 kts 183°
2026-05-06 15:57 48.90100 17.96189 36820 ft 427 kts 182°
2026-05-06 15:57 48.84151 17.96666 36831 ft 429 kts 182°
2026-05-06 15:58 48.78170 17.97187 36825 ft 431 kts 182°
2026-05-06 15:58 48.72262 17.97716 36833 ft 432 kts 182°
2026-05-06 15:59 48.66246 17.98256 36821 ft 434 kts 182°
2026-05-06 15:59 48.60226 17.98791 36828 ft 433 kts 182°
2026-05-06 16:00 48.54212 17.99328 36818 ft 432 kts 182°
2026-05-06 16:00 48.48210 17.99864 36816 ft 431 kts 182°
2026-05-06 16:01 48.42229 18.00395 36829 ft 430 kts 182°
2026-05-06 16:01 48.36250 18.00922 36841 ft 430 kts 182°
2026-05-06 16:02 48.30307 18.01445 36832 ft 430 kts 182°
2026-05-06 16:02 48.24343 18.01969 36846 ft 429 kts 182°
2026-05-06 16:03 48.18374 18.02492 36838 ft 430 kts 182°
2026-05-06 16:03 48.12364 18.03018 36849 ft 430 kts 182°
2026-05-06 16:04 48.06412 18.03537 36838 ft 430 kts 182°
2026-05-06 16:04 48.00437 18.04058 36844 ft 430 kts 182°
2026-05-06 16:05 47.94458 18.04577 36851 ft 430 kts 182°
2026-05-06 16:05 47.88479 18.05096 36832 ft 431 kts 181°
2026-05-06 16:06 47.82489 18.05614 36850 ft 431 kts 181°
2026-05-06 16:06 47.76504 18.06130 36857 ft 432 kts 181°
2026-05-06 16:07 47.70499 18.06492 36856 ft 431 kts 183°
2026-05-06 16:07 47.64485 18.06678 36869 ft 432 kts 184°
2026-05-06 16:08 47.58503 18.06865 36869 ft 432 kts 184°
2026-05-06 16:08 47.52491 18.07077 36862 ft 432 kts 184°
2026-05-06 16:09 47.46491 18.07301 36866 ft 431 kts 184°
2026-05-06 16:09 47.40497 18.07526 36867 ft 430 kts 184°
2026-05-06 16:10 47.34510 18.07751 36870 ft 429 kts 184°
2026-05-06 16:10 47.28541 18.07974 36878 ft 429 kts 184°
2026-05-06 16:11 47.22580 18.08195 36873 ft 428 kts 184°
2026-05-06 16:11 47.16654 18.08415 36882 ft 429 kts 184°
2026-05-06 16:12 47.10691 18.08636 36888 ft 428 kts 184°
2026-05-06 16:12 47.04725 18.08856 36886 ft 429 kts 184°
2026-05-06 16:13 46.98758 18.09076 36876 ft 429 kts 184°
2026-05-06 16:13 46.93810 18.09259 36889 ft 428 kts 184°
2026-05-06 16:14 46.87863 18.09478 36887 ft 427 kts 184°
2026-05-06 16:14 46.80967 18.09730 36893 ft 426 kts 184°
2026-05-06 16:15 46.75034 18.09947 36883 ft 426 kts 184°
2026-05-06 16:15 46.70072 18.10128 36888 ft 425 kts 184°
2026-05-06 16:16 46.64176 18.10341 36999 ft 429 kts 184°
2026-05-06 16:16 46.61189 18.10448 37254 ft 430 kts 184°
2026-05-06 16:16 46.58207 18.10558 37614 ft 428 kts 184°
2026-05-06 16:17 46.55235 18.10667 37997 ft 425 kts 184°
2026-05-06 16:17 46.52288 18.10776 38400 ft 422 kts 184°
2026-05-06 16:17 46.49355 18.10884 38716 ft 421 kts 184°
2026-05-06 16:17 46.46427 18.10989 38868 ft 421 kts 184°
2026-05-06 16:18 46.40511 18.11197 38904 ft 429 kts 184°
2026-05-06 16:18 46.34528 18.11412 38886 ft 430 kts 184°
2026-05-06 16:19 46.28559 18.11629 38908 ft 429 kts 184°
2026-05-06 16:19 46.22592 18.11844 38917 ft 428 kts 184°
2026-05-06 16:20 46.16679 18.12056 38923 ft 427 kts 184°
2026-05-06 16:20 46.10740 18.12268 38926 ft 426 kts 184°
2026-05-06 16:21 46.04810 18.12479 38939 ft 426 kts 184°
2026-05-06 16:21 45.98892 18.12689 38931 ft 425 kts 184°
2026-05-06 16:22 45.92964 18.12899 38927 ft 425 kts 184°
2026-05-06 16:22 45.87056 18.13109 38941 ft 425 kts 184°
2026-05-06 16:23 45.81138 18.13315 38919 ft 425 kts 184°
2026-05-06 16:23 45.75367 18.12260 38922 ft 415 kts 199°
2026-05-06 16:24 45.69792 18.10129 38907 ft 414 kts 199°
2026-05-06 16:24 45.64256 18.08036 38902 ft 414 kts 198°
2026-05-06 16:25 45.58677 18.05964 38906 ft 414 kts 198°
2026-05-06 16:25 45.53101 18.03911 38909 ft 414 kts 198°
2026-05-06 16:26 45.47530 18.01866 38903 ft 413 kts 198°
2026-05-06 16:26 45.41956 17.99823 38901 ft 413 kts 198°
2026-05-06 16:27 45.36392 17.97788 38902 ft 413 kts 198°
2026-05-06 16:27 45.30816 17.95753 38907 ft 414 kts 198°
2026-05-06 16:28 45.25235 17.93726 38903 ft 414 kts 198°
2026-05-06 16:28 45.19689 17.91706 38902 ft 414 kts 198°
2026-05-06 16:29 45.14104 17.89676 38892 ft 414 kts 198°
2026-05-06 16:29 45.08526 17.87656 38905 ft 414 kts 198°
2026-05-06 16:30 45.03838 17.86220 38901 ft 418 kts 190°
2026-05-06 16:30 44.96996 17.86084 38901 ft 422 kts 184°
2026-05-06 16:31 44.91126 17.86123 38907 ft 422 kts 184°
2026-05-06 16:31 44.85285 17.86129 38906 ft 423 kts 185°
2026-05-06 16:32 44.79391 17.86115 38905 ft 423 kts 185°
2026-05-06 16:32 44.73484 17.86095 38895 ft 424 kts 184°
2026-05-06 16:33 44.67587 17.86074 38907 ft 424 kts 184°
2026-05-06 16:34 44.58703 17.86042 37946 ft 424 kts 184°
2026-05-06 16:34 44.55797 17.86034 37435 ft 420 kts 185°
2026-05-06 16:34 44.52878 17.86026 36895 ft 418 kts 184°
2026-05-06 16:34 44.49980 17.86017 36343 ft 416 kts 184°
2026-05-06 16:35 44.47090 17.86007 35795 ft 415 kts 184°
2026-05-06 16:35 44.44204 17.85997 35213 ft 415 kts 184°
2026-05-06 16:35 44.41323 17.85986 34617 ft 415 kts 184°
2026-05-06 16:35 44.38409 17.85974 33633 ft 419 kts 184°
2026-05-06 16:36 44.35490 17.85963 32887 ft 420 kts 184°
2026-05-06 16:36 44.32570 17.85953 32273 ft 419 kts 184°
2026-05-06 16:36 44.29672 17.85946 31827 ft 413 kts 185°
2026-05-06 16:36 44.26814 17.85941 31375 ft 408 kts 185°
2026-05-06 16:37 44.23974 17.85930 30993 ft 411 kts 185°
2026-05-06 16:37 44.21053 17.85913 30553 ft 428 kts 185°
2026-05-06 16:37 44.18053 17.85895 30087 ft 431 kts 185°
2026-05-06 16:37 44.15072 17.85888 29538 ft 425 kts 185°
2026-05-06 16:38 44.12135 17.85884 29036 ft 419 kts 185°
2026-05-06 16:38 44.09280 17.85879 28578 ft 412 kts 185°
2026-05-06 16:38 44.06437 17.85875 28116 ft 405 kts 185°
2026-05-06 16:38 44.03646 17.85861 27725 ft 398 kts 185°
2026-05-06 16:39 44.00891 17.85852 27238 ft 393 kts 185°
2026-05-06 16:39 43.98172 17.85844 26804 ft 388 kts 185°
2026-05-06 16:39 43.95481 17.85836 26378 ft 385 kts 185°
2026-05-06 16:39 43.92818 17.85827 25935 ft 381 kts 185°
2026-05-06 16:40 43.90170 17.85817 25533 ft 383 kts 185°
2026-05-06 16:40 43.87451 17.85802 25132 ft 397 kts 185°
2026-05-06 16:40 43.84687 17.85788 24666 ft 396 kts 184°
2026-05-06 16:40 43.81946 17.85775 24204 ft 391 kts 184°
2026-05-06 16:41 43.79234 17.85767 23770 ft 387 kts 184°
2026-05-06 16:41 43.76549 17.85764 23295 ft 383 kts 184°
2026-05-06 16:41 43.73927 17.85760 22818 ft 379 kts 184°
2026-05-06 16:41 43.71303 17.85753 22374 ft 375 kts 184°
2026-05-06 16:42 43.68710 17.85745 21943 ft 371 kts 183°
2026-05-06 16:42 43.66142 17.85736 21535 ft 367 kts 183°
2026-05-06 16:42 43.63605 17.85728 21115 ft 363 kts 183°
2026-05-06 16:42 43.61093 17.85719 20710 ft 359 kts 183°
2026-05-06 16:43 43.58604 17.85710 20314 ft 356 kts 183°
2026-05-06 16:43 43.56133 17.85702 19918 ft 355 kts 183°
2026-05-06 16:43 43.53659 17.85692 19520 ft 355 kts 183°
2026-05-06 16:43 43.51182 17.85683 19121 ft 359 kts 182°
2026-05-06 16:44 43.48658 17.85672 18696 ft 361 kts 182°
2026-05-06 16:44 43.46194 17.85664 17986 ft 358 kts 182°
2026-05-06 16:44 43.43715 17.85658 17143 ft 355 kts 182°
2026-05-06 16:44 43.41256 17.85650 16278 ft 352 kts 182°
2026-05-06 16:45 43.38822 17.85643 15520 ft 347 kts 182°
2026-05-06 16:45 43.36420 17.85635 14802 ft 342 kts 182°
2026-05-06 16:45 43.34054 17.85627 14075 ft 338 kts 182°
2026-05-06 16:45 43.31717 17.85620 13327 ft 334 kts 182°
2026-05-06 16:46 43.29414 17.85612 12591 ft 329 kts 182°
2026-05-06 16:46 43.27138 17.85605 11859 ft 326 kts 182°
2026-05-06 16:46 43.24864 17.85794 11349 ft 327 kts 173°
2026-05-06 16:46 43.22625 17.86325 10889 ft 326 kts 171°
2026-05-06 16:47 43.20443 17.86903 10715 ft 315 kts 171°
2026-05-06 16:47 43.18325 17.87470 10548 ft 305 kts 171°
2026-05-06 16:47 43.16273 17.88012 10398 ft 295 kts 171°
2026-05-06 16:47 43.14285 17.88529 10261 ft 286 kts 171°
2026-05-06 16:48 43.12354 17.89024 10134 ft 278 kts 171°
2026-05-06 16:48 43.10483 17.89499 10015 ft 269 kts 171°
2026-05-06 16:48 43.08652 17.89961 9758 ft 267 kts 172°
2026-05-06 16:48 43.06836 17.90417 9487 ft 265 kts 172°
2026-05-06 16:49 43.05024 17.90862 9222 ft 264 kts 172°
2026-05-06 16:49 43.03224 17.91313 8949 ft 263 kts 172°
2026-05-06 16:49 43.01426 17.91763 8670 ft 261 kts 172°
2026-05-06 16:49 42.99647 17.92209 8411 ft 259 kts 173°
2026-05-06 16:50 42.97880 17.92643 8160 ft 257 kts 173°
2026-05-06 16:50 42.96150 17.93073 7922 ft 256 kts 173°
2026-05-06 16:50 42.94403 17.93508 7651 ft 255 kts 173°
2026-05-06 16:50 42.93244 17.93797 7470 ft 253 kts 173°
2026-05-06 16:51 42.90975 17.94364 7156 ft 250 kts 173°
2026-05-06 16:51 42.89262 17.94791 6904 ft 249 kts 173°
2026-05-06 16:51 42.87561 17.95213 6644 ft 248 kts 173°
2026-05-06 16:51 42.85876 17.95631 6386 ft 245 kts 173°
2026-05-06 16:52 42.84207 17.96046 6147 ft 242 kts 173°
2026-05-06 16:52 42.82573 17.96442 5882 ft 242 kts 172°
2026-05-06 16:52 42.80923 17.96851 5627 ft 240 kts 171°
2026-05-06 16:52 42.79290 17.97260 5401 ft 237 kts 171°
2026-05-06 16:53 42.77667 17.97657 5144 ft 237 kts 171°
2026-05-06 16:53 42.76049 17.98058 4905 ft 235 kts 171°
2026-05-06 16:53 42.74443 17.98457 4737 ft 230 kts 170°
2026-05-06 16:53 42.72907 17.98839 4598 ft 219 kts 170°
2026-05-06 16:54 42.71459 17.99194 4513 ft 205 kts 170°
2026-05-06 16:54 42.70103 17.99528 4466 ft 194 kts 170°
2026-05-06 16:54 42.68774 17.99855 4364 ft 193 kts 170°
2026-05-06 16:54 42.67463 18.00214 4236 ft 193 kts 162°
2026-05-06 16:55 42.66363 18.01243 4072 ft 194 kts 137°
2026-05-06 16:55 42.65591 18.02753 3846 ft 195 kts 120°
2026-05-06 16:55 42.64991 18.04352 3680 ft 186 kts 121°
2026-05-06 16:55 42.64395 18.05887 3478 ft 181 kts 121°
2026-05-06 16:56 42.63813 18.07378 3256 ft 176 kts 121°
2026-05-06 16:56 42.63248 18.08820 3054 ft 170 kts 121°
2026-05-06 16:56 42.62707 18.10201 2858 ft 163 kts 121°
2026-05-06 16:56 42.62176 18.11554 2665 ft 163 kts 121°
2026-05-06 16:57 42.61637 18.12921 2463 ft 164 kts 121°
2026-05-06 16:57 42.61106 18.14267 2270 ft 155 kts 121°
2026-05-06 16:57 42.60612 18.15519 2053 ft 146 kts 121°
2026-05-06 16:57 42.60137 18.16719 1849 ft 144 kts 120°
2026-05-06 16:58 42.59681 18.17875 1678 ft 134 kts 121°
2026-05-06 16:58 42.59249 18.18965 1486 ft 130 kts 121°
2026-05-06 16:58 42.58818 18.20051 1342 ft 133 kts 122°
2026-05-06 16:58 42.58381 18.21154 1171 ft 132 kts 122°
2026-05-06 16:59 42.57943 18.22257 995 ft 132 kts 122°
2026-05-06 16:59 42.57522 18.23340 824 ft 128 kts 122°
2026-05-06 16:59 42.57103 18.24401 645 ft 127 kts 121°
2026-05-06 16:59 42.56676 18.25465 534 ft 123 kts 120°
2026-05-06 17:00 42.56336 18.26322 532 ft 84 kts 118°
2026-05-06 17:00 42.56210 18.26620 533 ft 15 kts 142°
2026-05-06 17:00 42.56157 18.26617 533 ft 6 kts 225°
2026-05-06 17:00 42.56127 18.26548 533 ft 8 kts 242°
2026-05-06 17:01 42.56103 18.26478 533 ft 7 kts 252°
2026-05-06 17:01 42.56077 18.26421 533 ft 7 kts 216°
2026-05-06 17:01 42.56046 18.26398 533 ft 0 kts 208°